Voltar ao catálogo

CZ-6A DEB

AtivoSSO
NORAD 54606·DEBRIS·🇨🇳 China

Lançado Nov 11, 2022 de Taiyuan Satellite Launch Center

Loading…

Próximas Passagens (próximas 24 horas)

TLE

AtualizadoSource: Space-Track

Época: Sep 14, 2026, 12:37 UTC

1 54606U 22151NG  26257.52588652  .00004364  00000-0  14894-2 0  9990
2 54606  98.7910 285.0335 0058330  52.8502 307.7991 14.35948839198765

Acompanhe CZ-6A DEB em tempo real com AllMySat

Download on the App Store